Hourly Data Report for October 30, 2012

All times are specified in Local Standard Time (LST). Add 1 hour to adjust for Daylight Saving Time where and when it is observed.

ST LEONARD CS
NEW BRUNSWICK

47°09'28.050" N
67°49'55.014" W
245.00 m
810I001
71019
WIY

Download Data

Hourly Data (October 2012)
Hourly Data Report for October 30, 2012
Temp Definition
°C
Dew Point Temp Definition
°C
Rel Hum Definition
%
Wind Dir Definition
10's deg

Wind Spd Definition
km/h
Visibility Definition
km
Stn Press Definition
kPa
Hmdx Definition


Wind Chill Definition


Weather Definition


TIME
00:00 11.6 8.5 81 10 22   98.64     LegendNANA
01:00 11.3 8.9 85 9 17   98.61     LegendNANA
02:00 11.7 9.1 84 8 19   98.56     LegendNANA
03:00 12.2 9.1 81 8 20   98.44     LegendNANA
04:00 12.5 9.5 82 9 17   98.42     LegendNANA
05:00 13.0 9.9 81 9 17   98.44     LegendNANA
06:00 13.1 9.8 80 10 22   98.37     LegendNANA
07:00 13.2 9.9 80 9 22   98.39     LegendNANA
08:00 11.9 10.8 93 9 19   98.52     LegendNANA
09:00 11.8 10.8 94 8 15   98.53     LegendNANA
10:00 11.8 10.8 94 8 17   98.49     LegendNANA
11:00 12.3 11.3 94 9 17   98.53     LegendNANA
12:00 13.2 11.8 91 9 17   98.49     LegendNANA
13:00 14.6 12.2 86 10 19   98.46     LegendNANA
14:00 15.1 12.0 82 10 15   98.43     LegendNANA
15:00 15.1 11.8 81 10 15   98.44     LegendNANA
16:00 14.5 11.9 84 9 15   98.47     LegendNANA
17:00 13.8 11.5 86 8 19   98.40     LegendNANA
18:00 13.7 11.6 87 8 15   98.42     LegendNANA
19:00 13.5 11.4 87 8 15   98.40     LegendNANA
20:00 13.8 11.5 86 8 17   98.40     LegendNANA
21:00 13.2 12.0 92 6 9   98.38     LegendNANA
22:00 13.5 11.9 90 8 13   98.36     LegendNANA
23:00 13.1 11.9 92 8 15   98.23     LegendNANA

Notes on Data Quality.

Legend

  • E = Estimated
  • M = Missing
  • NA = Not Available
  • ‡ = Partner data that is not subject to review by the National Climate Archives
Date modified: